Weather History for KOVS - February, 2013

Change the Weather History Date:

Sunday, February 3, 2013

  Actual Average (KPDC) Record (KPDC)
Temperature  
Mean Temperature 14 °F -  
Max Temperature 19 °F 28 °F 52 °F (1992)
Min Temperature 10 °F 9 °F -20 °F (1963)
Degree Days  
Heating Degree Days 50    
Moisture  
Dew Point 10 °F    
Average Humidity 79    
Maximum Humidity 92    
Minimum Humidity 59    
Precipitation  
Precipitation 0.05 in - - ()
Sea Level Pressure  
Sea Level Pressure 30.02 in    
Wind  
Wind Speed 2 mph (WSW)    
Max Wind Speed 12 mph    
Max Gust Speed -    
Visibility 5 miles    
Events Snow    
Averages and records for this station are not official NWS values.
T = Trace of Precipitation, MM = Missing Value Source: NWS Daily Summary

Daily Weather History Graph

Daily Weather History Graph

Search for Another Location

Airport or City:

Trip Planner

Search our weather history database for the weather conditions in past years. The results will help you decide how hot, cold, wet, or windy it might be!

Date:

Astronomy

Feb. 03, 2013 Rise Set
Actual Time 7:15 AM CST 5:18 PM CST
Civil Twilight 6:45 AM CST 5:48 PM CST
Nautical Twilight 6:11 AM CST 6:22 PM CST
Astronomical Twilight 5:38 AM CST 6:55 PM CST
Moon 12:43 AM CST (2/3) 10:54 AM CST (2/3)
Length of Visible Light 11h 02m
Length of Day
10h 02m
Waning Gibbous, 48% of the Moon is Illuminated
Feb 3
Waning Gibbous
Feb 10
New
Feb 17
First Quarter
Feb 25
Full
Mar 4
Last Quarter

Hourly Weather History & Observations

Time (CST) Temp. Windchill Dew Point Humidity Pressure Visibility Wind Dir Wind Speed Gust Speed Precip Events Conditions
12:10 AM 10.4 °F - 6.8 °F 85% 30.00 in 3.0 mi Calm Calm - 0.00 in Snow Light Snow
12:20 AM 10.4 °F - 6.8 °F 85% 30.00 in 2.0 mi Calm Calm - 0.00 in Snow Light Snow
12:36 AM 10.4 °F - 6.8 °F 85% 29.99 in 3.0 mi Calm Calm - 0.00 in Snow Light Snow
12:53 AM 10.9 °F - 7.0 °F 84% 30.03 in 3.0 mi Calm Calm - 0.00 in Snow Light Snow
1:36 AM 10.4 °F - 8.6 °F 92% 29.97 in 2.0 mi Calm Calm - 0.00 in Snow Light Snow
1:53 AM 10.9 °F - 7.0 °F 84% 30.01 in 3.0 mi Calm Calm - 0.00 in Snow Light Snow
2:53 AM 12.0 °F - 8.1 °F 84% 30.00 in 8.0 mi Calm Calm - 0.00 in   Overcast
3:16 AM 12.2 °F - 8.6 °F 85% 29.95 in 6.0 mi Calm Calm - N/A   Overcast
3:32 AM 10.4 °F - 8.6 °F 92% 29.95 in 6.0 mi Calm Calm - N/A   Overcast
3:43 AM 12.2 °F - 8.6 °F 85% 29.95 in 5.0 mi Calm Calm - N/A   Overcast
3:53 AM 12.0 °F - 8.1 °F 84% 29.99 in 5.0 mi Calm Calm - 0.00 in Snow Light Snow
4:13 AM 12.2 °F 4.3 °F 8.6 °F 85% 29.96 in 4.0 mi SW 4.6 mph - 0.00 in Snow Light Snow
4:40 AM 12.2 °F 4.3 °F 10.4 °F 92% 29.97 in 2.5 mi SSW 4.6 mph - 0.00 in Snow Light Snow
4:53 AM 12.9 °F 5.2 °F 10.0 °F 88% 30.02 in 1.8 mi SSW 4.6 mph - 0.01 in Snow Light Snow
4:58 AM 12.2 °F 4.3 °F 10.4 °F 92% 29.97 in 2.0 mi SSW 4.6 mph - 0.00 in Snow Light Snow
5:20 AM 12.2 °F 2.9 °F 10.4 °F 92% 29.97 in 3.0 mi SSW 5.8 mph - 0.00 in Snow Light Snow
5:53 AM 12.9 °F 3.8 °F 10.0 °F 88% 30.02 in 5.0 mi SW 5.8 mph - 0.00 in   Mist
6:53 AM 15.1 °F 9.4 °F 10.0 °F 80% 30.04 in 7.0 mi Variable 3.5 mph - 0.00 in   Overcast
7:51 AM 15.8 °F 5.1 °F 8.6 °F 73% 30.03 in 7.0 mi WNW 8.1 mph - N/A   Overcast
7:53 AM 15.1 °F 5.2 °F 8.1 °F 74% 30.08 in 7.0 mi WNW 6.9 mph - N/A   Overcast
8:53 AM 14.0 °F 1.2 °F 6.1 °F 71% 30.09 in 10.0 mi West 10.4 mph - 0.00 in   Mostly Cloudy
9:31 AM 14.0 °F 6.5 °F 6.8 °F 73% 30.04 in 10.0 mi WNW 4.6 mph - N/A   Scattered Clouds
9:53 AM 14.0 °F 2.9 °F 6.1 °F 71% 30.10 in 10.0 mi WNW 8.1 mph - N/A   Scattered Clouds
10:53 AM 15.1 °F 7.7 °F 6.1 °F 68% 30.10 in 10.0 mi West 4.6 mph - N/A   Clear
11:53 AM 17.1 °F 7.6 °F 6.1 °F 62% 30.09 in 10.0 mi WSW 6.9 mph - N/A   Clear
12:53 PM 19.0 °F 9.0 °F 7.0 °F 59% 30.09 in 10.0 mi West 8.1 mph - 0.00 in   Scattered Clouds
1:53 PM 18.0 °F 5.4 °F 6.1 °F 60% 30.08 in 10.0 mi West 11.5 mph - 0.00 in   Overcast
2:53 PM 19.0 °F 11.1 °F 7.0 °F 59% 30.07 in 10.0 mi West 5.8 mph - N/A   Overcast
3:53 PM 19.0 °F 8.2 °F 7.0 °F 59% 30.06 in 10.0 mi WSW 9.2 mph - 0.00 in   Overcast
4:53 PM 19.0 °F 13.9 °F 8.1 °F 62% 30.05 in 10.0 mi Variable 3.5 mph - 0.00 in   Overcast
5:53 PM 19.0 °F 13.9 °F 10.0 °F 68% 30.05 in 10.0 mi SW 3.5 mph - N/A   Overcast
6:53 PM 18.0 °F - 9.0 °F 68% 30.06 in 10.0 mi Calm Calm - N/A   Overcast
7:53 PM 17.1 °F - 10.0 °F 74% 30.06 in 10.0 mi Calm Calm - N/A   Overcast
8:48 PM 17.6 °F 12.3 °F 12.2 °F 79% 30.02 in 1.8 mi SSW 3.5 mph - 0.00 in Snow Light Snow
8:49 PM 18.0 °F 12.7 °F 12.0 °F 78% 30.06 in 1.8 mi SSW 3.5 mph - 0.00 in Snow Light Snow
8:56 PM 17.6 °F - 12.2 °F 79% 30.02 in 1.2 mi Calm Calm - 0.00 in Snow Light Snow
9:43 PM 17.6 °F - 14.0 °F 86% 30.01 in 2.5 mi Calm Calm - 0.01 in Snow Light Snow
9:53 PM 17.1 °F - 14.0 °F 88% 30.05 in 1.8 mi Calm Calm - 0.01 in Snow Light Snow
10:53 PM 18.0 °F 12.7 °F 14.0 °F 84% 30.03 in 1.0 mi NE 3.5 mph - 0.02 in Snow Light Snow
11:08 PM 17.6 °F - 14.0 °F 86% 29.98 in 1.5 mi Calm Calm - 0.00 in Snow Light Snow
11:17 PM 17.6 °F 12.3 °F 14.0 °F 86% 29.97 in 3.0 mi NE 3.5 mph - 0.00 in Snow Light Snow
11:25 PM 17.6 °F - 14.0 °F 86% 29.97 in 1.8 mi Calm Calm - 0.00 in Snow Light Snow
11:36 PM 17.6 °F 12.3 °F 14.0 °F 86% 29.97 in 1.8 mi NE 3.5 mph - 0.00 in Snow Light Snow
11:43 PM 17.6 °F 12.3 °F 14.0 °F 86% 29.96 in 1.8 mi NE 3.5 mph - 0.00 in Snow Light Snow
11:53 PM 18.0 °F 12.7 °F 14.0 °F 84% 30.00 in 1.0 mi Variable 3.5 mph - 0.01 in Snow Light Snow